TimeEDT,TemperatureF,Dew PointF,Humidity,Sea Level PressureIn,VisibilityMPH,Wind Direction,Wind SpeedMPH,Gust SpeedMPH,PrecipitationIn,Events,Conditions,WindDirDegrees,DateUTC
12:54 AM,54.0,48.9,83,30.19,9.0,North,8.1,-,N/A,,Overcast,360,2012-10-09 04:54:00
1:50 AM,53.6,46.4,77,30.19,8.0,NNW,11.5,-,0.00,Rain,Light Rain,340,2012-10-09 05:50:00
1:54 AM,53.1,46.9,80,30.19,8.0,NNW,11.5,-,0.01,Rain,Light Rain,340,2012-10-09 05:54:00
2:54 AM,53.1,48.0,83,30.19,6.0,NNW,10.4,-,0.01,Rain,Light Rain,340,2012-10-09 06:54:00
3:54 AM,52.0,48.0,86,30.18,5.0,NNW,8.1,-,0.02,Rain,Light Rain,340,2012-10-09 07:54:00
4:54 AM,52.0,48.0,86,30.18,8.0,NNW,6.9,-,0.00,,Overcast,330,2012-10-09 08:54:00
5:14 AM,53.1,48.9,86,30.18,5.0,NNW,11.5,-,0.01,Rain,Light Rain,330,2012-10-09 09:14:00
5:44 AM,53.1,50.0,89,30.17,5.0,North,9.2,-,0.04,Rain,Light Rain,350,2012-10-09 09:44:00
5:54 AM,52.0,48.9,89,30.18,6.0,North,9.2,-,0.04,Rain,Light Rain,350,2012-10-09 09:54:00
6:54 AM,53.1,50.0,89,30.18,6.0,North,9.2,-,0.02,,Overcast,350,2012-10-09 10:54:00
7:10 AM,53.1,50.0,89,30.18,6.0,NNW,8.1,-,N/A,,Overcast,340,2012-10-09 11:10:00
7:54 AM,53.1,50.0,89,30.18,4.0,North,8.1,-,0.01,Rain,Light Rain,350,2012-10-09 11:54:00
8:33 AM,54.0,51.1,90,30.17,5.0,North,5.8,-,0.00,,Overcast,360,2012-10-09 12:33:00
8:54 AM,55.0,52.0,89,30.19,7.0,North,6.9,-,0.00,,Overcast,350,2012-10-09 12:54:00
9:54 AM,55.0,52.0,89,30.20,7.0,NNW,8.1,-,N/A,,Overcast,340,2012-10-09 13:54:00
10:28 AM,55.9,52.0,87,30.18,8.0,North,10.4,-,N/A,,Overcast,360,2012-10-09 14:28:00
10:54 AM,57.0,52.0,83,30.18,9.0,North,10.4,-,N/A,,Overcast,360,2012-10-09 14:54:00
11:09 AM,57.0,52.0,83,30.17,10.0,North,9.2,-,N/A,,Overcast,360,2012-10-09 15:09:00
11:54 AM,59.0,52.0,78,30.17,10.0,North,12.7,-,N/A,,Overcast,10,2012-10-09 15:54:00
12:43 PM,59.0,51.1,75,30.15,10.0,North,10.4,-,N/A,,Overcast,10,2012-10-09 16:43:00
12:54 PM,60.1,51.1,72,30.15,10.0,NNE,10.4,-,N/A,,Overcast,20,2012-10-09 16:54:00
1:10 PM,60.1,52.0,75,30.14,10.0,North,11.5,-,N/A,,Overcast,360,2012-10-09 17:10:00
1:54 PM,60.1,52.0,75,30.13,10.0,North,12.7,-,N/A,,Overcast,360,2012-10-09 17:54:00
2:54 PM,61.0,52.0,72,30.12,10.0,North,10.4,-,N/A,,Overcast,350,2012-10-09 18:54:00
3:54 PM,61.0,53.1,75,30.11,10.0,North,10.4,-,N/A,,Overcast,350,2012-10-09 19:54:00
4:54 PM,61.0,54.0,78,30.10,10.0,North,9.2,-,N/A,,Overcast,360,2012-10-09 20:54:00
5:54 PM,61.0,54.0,78,30.11,10.0,North,6.9,-,N/A,,Overcast,350,2012-10-09 21:54:00
6:54 PM,61.0,54.0,78,30.10,10.0,North,6.9,-,N/A,,Overcast,360,2012-10-09 22:54:00
7:54 PM,59.0,55.0,87,30.10,8.0,North,4.6,-,N/A,,Overcast,10,2012-10-09 23:54:00
8:54 PM,59.0,55.0,87,30.10,9.0,North,5.8,-,N/A,,Overcast,350,2012-10-10 00:54:00
9:21 PM,60.1,55.0,83,30.09,9.0,NNW,5.8,-,N/A,,Overcast,330,2012-10-10 01:21:00
9:54 PM,60.1,55.0,83,30.09,8.0,NNW,5.8,-,N/A,,Overcast,340,2012-10-10 01:54:00
10:54 PM,59.0,55.9,90,30.09,5.0,North,4.6,-,N/A,,Overcast,360,2012-10-10 02:54:00
11:32 PM,59.0,55.9,90,30.06,4.0,North,6.9,-,N/A,,Overcast,350,2012-10-10 03:32:00
11:54 PM,59.0,55.9,90,30.06,4.0,NNW,4.6,-,N/A,,Overcast,330,2012-10-10 03:54:00